Location: Kosierady Wielkie
(52.3643°N, 22.1764°E)
Time: 17:56:32
(UTC+00:00)

Daily predictions for brighter satellites

Satellite Brightness Start Highest point End
(mag) Time Altitude Azimuth Time Altitude Azimuth Time Altitude Azimuth
Cosmos 1758 Rocket 3.6 19:34:26 10° S 19:38:55 76° E 19:43:26 10° NNE
SPOT 5 3.2 19:35:38 10° SSE 19:40:34 59° ENE 19:45:15 10° N
Cosmos 2181 Rocket 4.2 19:36:05 10° N 19:42:26 62° ENE 19:48:37 10° SSE
Lacrosse 5 rocket 2.4 19:39:05 10° W 19:43:14 49° NNW 19:47:10 10° ENE
Spot 2 Rocket 3.8 19:38:25 10° S 19:43:29 69° WSW 19:48:37 10° NNW
BREEZE-M DEB (TANK) 4.3 19:42:15 10° S 19:43:38 11° SSE 19:44:43 10° SE
ATLAS 5 CENTAUR R/B 3.3 19:43:16 10° W 19:45:50 27° NNW 19:47:41 10° NE
Cosmos 1745 Rocket 4.3 19:42:43 10° SSW 19:48:56 75° WNW 19:55:15 10° N
Landsat 7 4.2 19:44:33 10° S 19:49:17 65° WSW 19:54:03 10° NNW
USA 267 3.4 19:48:34 10° ESE 19:55:10 86° NNE 20:01:46 10° WNW
CZ-4C R/B 4.3 19:50:30 10° NW 19:56:01 32° N 20:02:29 10° ENE
SPOT 1/Viking Rocket 3.8 19:52:32 10° S 19:57:39 68° WSW 20:02:50 10° NNW
Alouette 2 Rocket 4.0 19:56:31 10° NNW 20:00:10 57° WSW 20:04:51 10° S
Cosmos 1953 Rocket 3.5 19:57:43 10° S 20:02:01 73° E 20:06:21 10° NNE
Cosmos 2322 Rocket 3.2 19:58:41 10° SW 20:04:09 51° NW 20:09:39 10° NNE
NOSS 7 (D) 4.0 20:03:19 10° SW 20:06:05 74° NW 20:08:44 10° NE
Cosmos 2084 3.6 20:02:51 10° NW 20:07:19 76° SW 20:11:33 11° SE
Cosmos 1842 Rocket 3.9 20:03:32 10° N 20:07:50 53° ENE 20:11:52 11° SSE
Cosmos 1328 4.2 20:04:29 10° SSW 20:08:25 66° WNW 20:12:23 10° N
SAR-Lupe-2 3.6 20:04:48 10° NNE 20:08:26 89° ESE 20:12:01 10° SSW
Cosmos 1455 4.3 20:07:46 10° NW 20:10:57 25° W 20:14:07 10° SW
Cosmos 1825 Rocket 4.2 20:13:26 10° SSW 20:17:49 57° WNW 20:22:15 10° N
ATLAS CENTAUR R/B 1.3 20:15:33 10° NW 20:19:12 58° SW 20:22:16 14° SSE
Cosmos 1703 4.5 20:18:44 10° SW 20:22:25 42° WNW 20:26:09 10° N
COSMOS 2428 2.9 20:18:17 10° S 20:23:48 56° ESE 20:29:21 10° NE
NOSS 3-4 (A) 4.0 20:17:37 10° NW 20:24:24 71° NE 20:31:56 10° SE
NOSS 3-4 (C) 4.0 20:17:45 10° NW 20:24:31 71° NE 20:32:03 10° ESE
Cosmos 1825 4.4 20:23:40 10° ESE 20:25:28 13° E 20:27:16 10° NE
SL-24 R/B - RUBIN 2 4.5 20:20:48 10° SW 20:26:57 78° SE 20:33:40 10° NE
Cosmos 2322 3.8 20:21:59 10° SSW 20:27:44 88° SE 20:33:30 10° NNE
Meteor 1-27 4.5 20:24:18 10° NNW 20:30:00 72° W 20:35:45 10° S
Cosmos 1869 3.3 20:26:30 10° N 20:30:29 72° E 20:33:50 14° SSE
Terra 2.1 20:31:40 11° S 20:36:14 65° WSW 20:41:00 10° NNW
NOSS 3-3 (A) 4.0 20:30:36 10° SSW 20:36:24 60° SE 20:43:00 10° NE
NOSS 3-3 (C) 4.0 20:30:43 10° SSW 20:36:31 59° SE 20:43:08 10° NE
Cosmos 2237 Rocket 3.1 20:33:12 13° SSE 20:37:34 32° ESE 20:42:33 10° NE
Cosmos 2333 4.3 20:33:53 10° SW 20:39:33 81° WNW 20:45:19 10° NNE
Cosmos 2219 Rocket 2.1 20:34:18 10° SSW 20:39:52 78° ESE 20:45:30 10° NNE
Cosmos 2360 Rocket 3.3 20:36:35 10° SW 20:42:03 48° NW 20:47:35 10° NNE
Cosmos 1538 Rocket 4.0 20:37:14 10° SSW 20:42:36 83° ESE 20:47:57 10° NNE
Meteor 2-2 Rocket 4.3 20:42:13 10° NNW 20:48:06 84° W 20:53:04 14° S
Cosmos 2184 Rocket 4.0 20:42:26 10° S 20:48:34 75° E 20:54:53 10° NNE
Thor Agena Rocket 4.3 20:44:29 10° NNE 20:49:13 36° E 20:52:43 16° SSE
Cosmos 2333 Rocket 2.3 20:44:00 10° SSW 20:49:43 87° WNW 20:55:30 10° NNE
Cosmos 1315 Rocket 3.9 20:46:36 10° NNW 20:50:27 40° W 20:54:13 11° SSW
ATLAS 2AS CENTAUR R/B 2.9 20:44:40 10° NW 20:52:26 86° NE 20:59:01 12° SE
Cosmos 2221 2.9 20:54:36 10° NNW 20:58:56 60° W 21:02:29 15° S
Cosmos 1371 Rocket 4.2 20:54:27 10° NNW 20:59:44 68° ENE 21:03:55 16° SE
GEOS 3 Rocket 4.2 20:55:28 10° NE 21:00:49 64° NW 21:06:09 10° WSW
USA 215 3.2 20:57:23 10° ENE 21:03:58 71° SSE 21:10:30 10° SW
Iridium 2 3.9 21:01:19 10° N 21:05:07 57° E 21:07:33 20° SSE
EO 1 Del DPAF 3.9 21:04:23 10° NNE 21:07:56 38° E 21:10:00 21° SSE
Cosmos 2278 Rocket 2.5 21:03:19 10° NW 21:08:54 58° WSW 21:13:09 17° S
Cosmos 1892 2.6 21:07:02 18° S 21:09:48 81° E 21:13:38 10° NNE
Cosmos 2297 4.2 21:04:33 10° NNW 21:10:15 56° NE 21:15:17 13° SE
Cosmos 2112 Rocket 4.4 21:08:06 16° S 21:12:04 49° ESE 21:17:13 10° NE
ATLAS 5 CENTAUR R/B 2.9 21:10:08 10° WSW 21:14:20 45° NNW 21:19:09 10° NE
Cosmos 1606 3.8 21:11:15 10° N 21:14:51 35° ENE 21:17:19 17° SE
Aureole 2 Rocket 2.9 21:12:45 10° NNW 21:15:24 38° ENE 21:17:00 20° ESE
Cosmos 158 Rocket 4.0 21:13:11 17° S 21:16:45 53° ESE 21:21:33 10° NNE
Cosmos 1943 Rocket 3.4 21:11:50 10° NNW 21:17:07 37° NE 21:22:20 10° ESE
SL-16 R/B 3.3 21:18:56 17° SSE 21:21:56 27° ESE 21:26:37 10° NE
Lacrosse 5 rocket 2.4 21:18:55 10° WNW 21:22:55 46° N 21:26:42 10° E
Spot 4 3.8 21:20:00 20° SSE 21:23:23 85° WSW 21:28:12 10° NNW
Cosmos 2056 Rocket 3.6 21:18:15 10° NNW 21:23:42 87° ENE 21:27:39 19° SSE
Nadezhda 3 Rocket 4.2 21:17:48 10° NNW 21:24:11 75° W 21:29:11 17° S
Cosmos 2058 3.1 21:25:00 15° SSW 21:28:21 68° WNW 21:32:29 10° N
Cosmos 2154 Rocket 4.0 21:23:04 14° S 21:28:25 88° W 21:34:42 10° N
Cosmos 1408 2.4 21:29:06 22° S 21:31:17 88° ESE 21:34:53 10° N
Cosmos 2341 Rocket 4.2 21:26:54 19° SSE 21:31:26 60° E 21:37:33 10° NNE
In-Cosmos 22 Rocket 4.4 21:29:55 12° SSW 21:34:53 66° WNW 21:40:13 10° N
USA 267 3.7 21:34:05 18° SSE 21:38:35 43° SW 21:44:48 10° WNW
Cosmos 1076 Rocket 3.9 21:36:08 15° SSW 21:39:35 60° WNW 21:43:50 10° N
Cosmos 1680 Rocket 3.5 21:35:41 13° SSW 21:40:24 88° ESE 21:45:46 10° NNE
CZ-4C R/B 3.6 21:39:28 10° NW 21:45:59 52° NNE 21:53:39 10° ESE
EO 1 Delta rocket 4.2 21:43:11 10° N 21:48:08 83° WNW 21:52:50 17° SSW
COSMOS 2455 3.2 21:43:26 10° NW 21:49:29 65° NE 21:55:19 11° SE
Cosmos 2151 2.9 21:47:18 23° S 21:49:58 82° E 21:54:16 10° NNE
SL-8 Rocket 4.1 21:46:21 20° SSE 21:50:39 62° E 21:56:44 10° NNE
Cosmos 1452 Rocket 3.9 21:45:30 10° NNW 21:50:44 60° ENE 21:54:48 17° SE
Helios 1A 3.6 21:48:16 19° SE 21:50:59 48° ENE 21:55:02 10° N
Cosmos 1727 Rocket 4.4 21:52:32 10° N 21:58:42 58° ENE 22:03:21 18° SSE
Cosmos 1933 3.3 21:56:10 10° N 22:00:13 79° E 22:02:24 26° SSE
Cosmos 1825 2.4 21:58:08 22° SSW 22:00:27 66° WNW 22:04:14 10° N
ALOS 2 2.6 21:58:03 24° S 22:00:38 72° WSW 22:05:02 10° NNW
Cosmos 1151 Rocket 3.0 21:56:22 10° N 22:00:45 86° E 22:03:13 25° SSE
Cosmos 1408 Rocket 4.2 21:58:51 23° SSE 22:01:11 44° E 22:05:24 10° NNE
Cosmos 1340 3.3 21:59:38 25° SSE 22:01:17 41° E 22:04:52 10° NNE
Cosmos 2369 Rocket 2.9 21:56:06 10° NNW 22:01:34 49° NE 22:06:59 10° SE
Cosmos 1980 4.0 21:57:23 10° SW 22:03:00 70° WNW 22:08:41 10° NNE
APEX 2.5 22:01:17 10° NNW 22:04:02 66° NE 22:05:07 31° SE
IRIDIUM 103 4.4 22:01:14 22° S 22:04:35 73° E 22:09:49 10° N
Cosmos 44 3.4 22:05:15 25° S 22:07:22 46° ESE 22:11:38 10° NE
COSMOS 2428 4.2 22:03:08 10° WSW 22:08:22 36° NW 22:13:37 10° NNE
GP-B 3.1 22:04:18 10° N 22:08:46 85° W 22:11:24 24° S
Cosmos 371 Rocket 3.3 22:03:53 10° NNW 22:08:46 82° WSW 22:11:47 23° SSE
NOSS 3-4 (C) 4.5 22:08:51 10° NW 22:15:15 40° WSW 22:19:55 20° S
Helios 1B rocket 4.2 22:13:51 10° NE 22:17:05 22° E 22:19:04 16° SE
Nimbus 7 Rocket 4.4 22:11:55 10° NNE 22:17:54 85° WNW 22:22:22 18° SSW
SL-4 R/B 0.5 22:19:54 59° W 22:19:54 59° W 22:21:56 10° NNW
Cosmos 2237 Rocket 2.8 22:15:46 10° SW 22:21:22 57° NW 22:27:02 10° NNE
Cosmos 1782 3.1 22:17:27 10° N 22:21:23 59° ENE 22:23:34 24° SSE
Genesis I 3.3 22:18:35 13° SW 22:22:04 73° NW 22:25:58 10° NE
IRIDIUM 106 4.3 22:19:31 23° S 22:22:54 82° W 22:28:10 10° N
CREW DRAGON DEMO-1 DEB 3.1 22:22:53 38° S 22:23:21 42° SSE 22:26:17 10° E
Cosmos 2344 3.6 22:16:48 10° SW 22:24:15 83° SE 22:32:41 10° NE
Cosmos 2219 Rocket 4.1 22:19:38 10° W 22:24:26 28° NW 22:29:16 10° NNE
Cosmos 1346 Rocket 3.1 22:28:04 27° SSE 22:29:55 53° E 22:33:46 10° NNE
CZ-2D R/B 4.5 22:31:32 10° ENE 22:33:09 11° E 22:34:46 10° E
Cosmos 2333 Rocket 4.4 22:30:06 10° W 22:34:47 25° NW 22:39:32 10° NNE
RESURS DK-1 2.9 22:35:46 10° NNW 22:39:51 56° NE 22:43:23 13° SE
Cosmos 1515 Rocket 3.6 22:36:33 10° NNW 22:40:53 67° W 22:43:15 26° S
CZ-4 R/B 4.4 22:37:23 10° NNE 22:41:54 46° E 22:44:35 23° SSE
BREEZE-M DEB (TANK) 3.7 22:40:45 10° WSW 22:41:22 13° WSW 22:41:22 13° WSW
ATLAS 2AS CENTAUR R/B 3.8 22:36:23 10° NW 22:42:38 30° WSW 22:46:25 18° SSW
EP 3 4.3 22:42:46 43° WNW 22:43:03 49° NW 22:45:03 10° NE
USA 215 3.7 22:40:30 10° ENE 22:47:01 67° NNW 22:53:30 10° W
Cosmos 1766 Rocket 4.4 22:44:24 18° SW 22:47:21 43° WNW 22:51:36 10° N
Aureole 2 Rocket 4.2 22:47:14 10° WNW 22:48:43 13° WSW 22:48:59 13° WSW
Cosmos 1606 4.3 22:47:15 10° NW 22:50:25 24° W 22:52:19 17° SW
Gbstr 26 Del rocket 3.5 22:49:28 28° S 22:50:31 33° SSE 22:54:24 10° E
Cosmos 2278 Rocket 4.4 22:50:36 10° W 22:51:46 11° W 22:52:56 10° WSW
Cosmos 304 Rocket 3.8 22:50:23 10° NNW 22:55:11 65° WSW 22:58:03 24° S
Cosmos 2218 Rocket 4.4 22:50:54 18° SSW 22:55:41 60° WNW 23:01:57 10° N
Cosmos 2228 Rocket 3.1 22:51:59 10° NNW 22:56:37 83° W 22:59:19 24° S
Cosmos 1943 4.1 22:56:06 19° SSE 22:59:25 36° ESE 23:04:32 10° NE
ATLAS 5 CENTAUR R/B 4.4 22:56:15 10° WNW 23:00:08 24° N 23:04:32 10° NE
Cosmos 1862 4.0 22:58:33 22° SSE 23:00:40 43° E 23:04:28 10° NNE
Cosmos 1943 Rocket 2.4 22:55:35 10° NW 23:01:08 54° WSW 23:04:40 22° S
Cosmos 2366 rocket 4.4 22:56:35 18° SSW 23:01:24 58° WNW 23:07:41 10° N
Landsat 4 3.7 22:58:10 10° NNE 23:01:59 81° WNW 23:03:59 27° SSW
Lacrosse 5 rocket 1.0 22:58:17 10° WNW 23:02:18 75° SSW 23:06:04 10° SE
CRYOSAT 2 4.4 22:57:30 10° N 23:02:23 74° E 23:05:26 23° S
Cosmos 1633 2.6 23:01:11 28° SSW 23:02:57 69° WNW 23:06:35 10° N
SL-16 R/B 2.5 23:00:46 14° SW 23:05:38 65° NW 23:11:20 10° NNE
Cosmos 1821 Rocket 4.0 23:05:52 21° S 23:10:08 80° E 23:16:15 10° NNE
Cosmos 2123 Rocket 4.2 23:04:07 10° N 23:10:19 68° ENE 23:15:27 15° SSE
Cosmos 1743 Rocket 3.7 23:12:36 24° SSW 23:15:09 67° WNW 23:19:31 10° N
Sich 1 3.6 23:15:28 21° SSE 23:18:05 49° E 23:22:17 10° NNE
Cosmos 1331 Rocket 4.0 23:14:24 10° NNW 23:19:44 74° WSW 23:23:39 18° SSE
Cosmos 1048 Rocket 4.0 23:19:32 21° SSW 23:23:12 87° WNW 23:28:30 10° NNE
Meteor 2-3 Rocket 4.5 23:21:02 16° SW 23:25:22 45° WNW 23:30:52 10° N
Meteor 1-29 3.0 23:24:08 10° NNE 23:27:30 65° ESE 23:29:10 27° S
Cosmos 405 4.4 23:24:46 10° NW 23:27:45 26° W 23:29:08 20° SW
Meteor 1-10 Rocket 4.3 23:26:23 10° NNW 23:31:56 67° W 23:35:50 20° S
SL-4 R/B 3.5 23:32:31 12° SE 23:33:15 13° ESE 23:34:40 10° E
Iridium 4 Rocket 4.4 23:28:48 13° SSE 23:33:46 51° E 23:39:12 10° NNE
PSLV R/B 3.8 23:29:40 10° N 23:33:51 62° WNW 23:36:34 21° SSW
Cosmos 292 Rocket 4.1 23:29:15 10° NNW 23:34:04 67° ENE 23:38:49 10° SE
Meteor 2-6 Rocket 4.4 23:28:58 10° NNW 23:34:19 54° W 23:37:54 20° SSW
Cosmos 389 Rocket 2.6 23:31:14 10° N 23:34:47 69° ENE 23:37:05 20° SSE
CZ-4C R/B 3.0 23:27:59 10° NW 23:34:57 65° SW 23:43:02 10° SSE
COSMOS 2455 3.7 23:29:48 10° NW 23:35:06 33° WSW 23:38:24 19° SSW
Cosmos 1110 Rocket 4.3 23:31:40 10° NNW 23:36:46 50° WSW 23:40:16 20° S
SL-16 R/B 2.9 23:32:06 10° SSE 23:38:16 67° ENE 23:44:30 10° NNW
Cosmos 1605 Rocket 4.5 23:34:31 15° SSE 23:39:42 57° E 23:45:51 10° NNE
Cosmos 1603 3.7 23:36:25 20° SSW 23:40:29 79° ESE 23:46:15 10° NNE
IRAS Rocket 4.2 23:37:09 14° SSE 23:41:55 88° WSW 23:47:28 10° NNW
Cosmos 1269 Rocket 4.3 23:39:58 20° S 23:43:37 61° ESE 23:48:50 10° NNE
Resurs 1-4 Rocket 3.1 23:39:21 10° NNE 23:44:23 40° E 23:48:44 13° SSE
Cosmos 2369 Rocket 2.9 23:40:23 10° NW 23:45:28 36° WSW 23:48:49 19° SSW
Cosmos 1666 Rocket 3.8 23:44:14 20° S 23:47:16 67° E 23:51:38 10° NNE
SeaSat 1 3.1 23:43:11 10° NE 23:47:55 44° ESE 23:51:20 18° S
Cosmos 44 4.3 23:44:35 10° WSW 23:48:40 38° NW 23:52:56 10° NE
Meteor 2-20 Rocket 4.4 23:43:48 10° NNW 23:49:59 85° W 23:55:17 15° S
ISS -2.4 23:51:00 21° SSE 23:51:43 23° SSE 23:54:27 10° E
Helios 1B rocket 3.1 23:48:36 10° N 23:52:35 48° WNW 23:55:23 18° SW
ADEOS II 4.0 23:51:29 10° NE 23:55:33 22° E 23:59:35 10° SE
